,,Stat6,,Stat2,,Stat8,,Stat9,,Stat10,,Wind1,,Wind1,
time,status,PA1M_AVG,status,PR1M_SUM,status,RH1M_AVG,status,SR1M_AVG,status,TA1M_AVG,status,W1dAve1m,status,W1sAve1m,
2004-10-16, 00:00:00,VALID,920.747,VALID,0,VALID,100,VALID,0,VALID,20.0174,VALID,222,VALID,0.218056,
2004-10-16, 00:01:00,VALID,920.732,VALID,0,VALID,100,VALID,0,VALID,20.0497,VALID,223,VALID,0.237038,
2004-10-16, 00:02:00,VALID,920.718,VALID,0,VALID,100,VALID,0,VALID,20.0495,VALID,222,VALID,0.130273,
2004-10-16, 00:03:00,VALID,920.697,VALID,0,VALID,100,VALID,0,VALID,20.0363,VALID,223,VALID,0.00109012,
2004-10-16, 00:04:00,VALID,920.679,VALID,0,VALID,100,VALID,0,VALID,20.046,VALID,222,VALID,0.0216619,
2004-10-16, 00:05:00,VALID,920.668,VALID,0,VALID,100,VALID,0.0169808,VALID,20.0204,VALID,222,VALID,0,
2004-10-16, 00:06:00,VALID,920.663,VALID,0,VALID,100,VALID,0.0169808,VALID,20.0269,VALID,223,VALID,0,
2004-10-16, 00:07:00,VALID,920.654,VALID,0,VALID,100,VALID,0.0339617,VALID,20.0137,VALID,223,VALID,0,
2004-10-16, 00:08:00,VALID,920.647,VALID,0,VALID,100,VALID,0.0169808,VALID,20.0169,VALID,222,VALID,0,
2004-10-16, 00:09:00,VALID,920.642,VALID,0,VALID,100,VALID,0,VALID,20.0269,VALID,222,VALID,0.318576,
2004-10-16, 00:10:00,VALID,920.637,VALID,0,VALID,100,VALID,0,VALID,20.0266,VALID,222,VALID,0.455305,
2004-10-16, 00:11:00,VALID,920.621,VALID,0,VALID,100,VALID,0,VALID,20.0266,VALID,222,VALID,0.461719,
2004-10-16, 00:12:00,VALID,920.609,VALID,0,VALID,100,VALID,0,VALID,20.0435,VALID,65,VALID,0.699505,
2004-10-16, 00:13:00,VALID,920.589,VALID,0,VALID,100,VALID,0,VALID,20.0241,VALID,47,VALID,0.485677,
2004-10-16, 00:14:00,VALID,920.565,VALID,0,VALID,100,VALID,-0.0339617,VALID,19.9817,VALID,47,VALID,0.33457,
2004-10-16, 00:15:00,VALID,920.535,VALID,0,VALID,100,VALID,0,VALID,19.9655,VALID,47,VALID,0.20258,
2004-10-16, 00:16:00,VALID,920.5,VALID,0,VALID,100,VALID,0,VALID,19.9717,VALID,48,VALID,0.0699574,
2004-10-16, 00:17:00,VALID,920.46,VALID,0,VALID,100,VALID,0.0169808,VALID,19.9516,VALID,48,VALID,0.158507,
2004-10-16, 00:18:00,VALID,920.43,VALID,0,VALID,100,VALID,-0.0339617,VALID,19.9494,VALID,48,VALID,0.0976563,
2004-10-16, 00:19:00,VALID,920.395,VALID,0,VALID,100,VALID,-0.101885,VALID,19.9345,VALID,48,VALID,0,
2004-10-16, 00:20:00,VALID,920.375,VALID,0,VALID,100,VALID,-0.0849042,VALID,19.9278,VALID,48,VALID,0.148056,
2004-10-16, 00:21:00,VALID,920.357,VALID,0,VALID,100,VALID,-0.0679233,VALID,19.931,VALID,48,VALID,0.179116,
2004-10-16, 00:22:00,VALID,920.346,VALID,0,VALID,100,VALID,-0.0849042,VALID,19.9248,VALID,48,VALID,0.144259,
2004-10-16, 00:23:00,VALID,920.335,VALID,0,VALID,100,VALID,-0.101885,VALID,19.9183,VALID,48,VALID,0.0689787,
2004-10-16, 00:24:00,VALID,920.329,VALID,0,VALID,100,VALID,-0.118866,VALID,19.9183,VALID,49,VALID,0.240767,
2004-10-16, 00:25:00,VALID,920.319,VALID,0,VALID,100,VALID,-0.101885,VALID,19.8992,VALID,147,VALID,0.482599,
2004-10-16, 00:26:00,VALID,920.303,VALID,0,VALID,100,VALID,-0.0849042,VALID,19.8759,VALID,158,VALID,0.554306,
2004-10-16, 00:27:00,VALID,920.296,VALID,0,VALID,100,VALID,-0.0849042,VALID,19.8798,VALID,153,VALID,0.744186,
2004-10-16, 00:28:00,VALID,920.27,VALID,0,VALID,100,VALID,-0.101885,VALID,19.8833,VALID,203,VALID,0.588986,
2004-10-16, 00:29:00,VALID,920.25,VALID,0,VALID,100,VALID,-0.0849042,VALID,19.8828,VALID,189,VALID,0.331659,
2004-10-16, 00:30:00,VALID,920.232,VALID,0,VALID,100,VALID,-0.0679233,VALID,19.8863,VALID,192,VALID,0.450218,
2004-10-16, 00:31:00,VALID,920.217,VALID,0,VALID,100,VALID,-0.118866,VALID,19.8833,VALID,219,VALID,0.456597,
2004-10-16, 00:32:00,VALID,920.197,VALID,0,VALID,100,VALID,-0.101885,VALID,19.8637,VALID,227,VALID,0.393864,
2004-10-16, 00:33:00,VALID,920.193,VALID,0,VALID,100,VALID,-0.0509425,VALID,19.8401,VALID,241,VALID,0.307351,
2004-10-16, 00:34:00,VALID,920.175,VALID,0,VALID,100,VALID,0,VALID,19.8428,VALID,240,VALID,0.225,
2004-10-16, 00:35:00,VALID,920.148,VALID,0,VALID,100,VALID,0,VALID,19.8433,VALID,240,VALID,0.0459666,
2004-10-16, 00:36:00,VALID,920.121,VALID,0,VALID,100,VALID,0,VALID,19.8555,VALID,240,VALID,0,
2004-10-16, 00:37:00,VALID,920.116,VALID,0,VALID,100,VALID,0.0339617,VALID,19.8592,VALID,240,VALID,0.0143229,
2004-10-16, 00:38:00,VALID,920.086,VALID,0,VALID,100,VALID,0,VALID,19.8329,VALID,240,VALID,0.0487351,
2004-10-16, 00:39:00,VALID,920.057,VALID,0,VALID,100,VALID,0,VALID,19.8595,VALID,240,VALID,0.00177557,
2004-10-16, 00:40:00,VALID,920.023,VALID,0,VALID,100,VALID,0.0339617,VALID,19.8622,VALID,240,VALID,0,
2004-10-16, 00:41:00,VALID,920,VALID,0,VALID,100,VALID,0,VALID,19.8614,VALID,240,VALID,0,
2004-10-16, 00:42:00,VALID,919.975,VALID,0,VALID,100,VALID,0.0339617,VALID,19.8786,VALID,240,VALID,0.0321378,
2004-10-16, 00:43:00,VALID,919.951,VALID,0,VALID,100,VALID,0.0509425,VALID,19.8654,VALID,240,VALID,0.0796875,
2004-10-16, 00:44:00,VALID,919.918,VALID,0,VALID,100,VALID,0.0169808,VALID,19.8622,VALID,174,VALID,0.272485,
2004-10-16, 00:45:00,VALID,919.905,VALID,0,VALID,100,VALID,0.0169808,VALID,19.8654,VALID,155,VALID,0.4125,
2004-10-16, 00:46:00,VALID,919.885,VALID,0,VALID,100,VALID,0,VALID,19.8495,VALID,155,VALID,0.272727,
2004-10-16, 00:47:00,VALID,919.874,VALID,0,VALID,100,VALID,-0.0169808,VALID,19.8364,VALID,155,VALID,0.24375,
2004-10-16, 00:48:00,VALID,919.867,VALID,0,VALID,100,VALID,0,VALID,19.8232,VALID,155,VALID,0.048971,
2004-10-16, 00:49:00,VALID,919.871,VALID,0,VALID,100,VALID,0.0169808,VALID,19.8264,VALID,155,VALID,0,
2004-10-16, 00:50:00,VALID,919.875,VALID,0,VALID,100,VALID,0,VALID,19.8331,VALID,155,VALID,0,
2004-10-16, 00:51:00,VALID,919.877,VALID,0,VALID,100,VALID,0.0339617,VALID,19.8361,VALID,155,VALID,0,
2004-10-16, 00:52:00,VALID,919.876,VALID,0,VALID,100,VALID,0.0509425,VALID,19.8267,VALID,155,VALID,0,
2004-10-16, 00:53:00,VALID,919.879,VALID,0,VALID,100,VALID,0.0339617,VALID,19.8269,VALID,155,VALID,0,
2004-10-16, 00:54:00,VALID,919.874,VALID,0,VALID,100,VALID,0,VALID,19.8334,VALID,155,VALID,0,
2004-10-16, 00:55:00,VALID,919.872,VALID,0,VALID,100,VALID,0.0169808,VALID,19.8368,VALID,155,VALID,0,
2004-10-16, 00:56:00,VALID,919.87,VALID,0,VALID,100,VALID,0.0169808,VALID,19.8234,VALID,155,VALID,0,
2004-10-16, 00:57:00,VALID,919.901,VALID,0,VALID,100,VALID,0,VALID,19.8301,VALID,155,VALID,0,
2004-10-16, 00:58:00,VALID,919.89,VALID,0,VALID,100,VALID,0,VALID,19.85,VALID,155,VALID,0,
2004-10-16, 00:59:00,VALID,919.883,VALID,0,VALID,100,VALID,0,VALID,19.8493,VALID,155,VALID,0,
2004-10-16, 01:00:00,VALID,919.887,VALID,0,VALID,100,VALID,0,VALID,19.8595,VALID,155,VALID,0,
2004-10-16, 01:01:00,VALID,919.889,VALID,0,VALID,100,VALID,0,VALID,19.8724,VALID,155,VALID,0,
2004-10-16, 01:02:00,VALID,919.866,VALID,0,VALID,100,VALID,0,VALID,19.8659,VALID,155,VALID,0,
2004-10-16, 01:03:00,VALID,919.85,VALID,0,VALID,100,VALID,-0.0339617,VALID,19.8562,VALID,155,VALID,0,
2004-10-16, 01:04:00,VALID,919.831,VALID,0,VALID,100,VALID,-0.101885,VALID,19.8378,VALID,155,VALID,0,
2004-10-16, 01:05:00,VALID,919.816,VALID,0,VALID,100,VALID,-0.101885,VALID,19.8287,VALID,155,VALID,0,
2004-10-16, 01:06:00,VALID,919.799,VALID,0,VALID,100,VALID,-0.101885,VALID,19.819,VALID,155,VALID,0,
2004-10-16, 01:07:00,VALID,919.788,VALID,0,VALID,100,VALID,-0.0849042,VALID,19.8252,VALID,155,VALID,0,
2004-10-16, 01:08:00,VALID,919.78,VALID,0,VALID,100,VALID,-0.101885,VALID,19.809,VALID,155,VALID,0.135901,
2004-10-16, 01:09:00,VALID,919.779,VALID,0,VALID,100,VALID,-0.0849042,VALID,19.8123,VALID,155,VALID,0.118641,
2004-10-16, 01:10:00,VALID,919.781,VALID,0,VALID,100,VALID,-0.101885,VALID,19.8058,VALID,155,VALID,0.0777616,
2004-10-16, 01:11:00,VALID,919.774,VALID,0,VALID,100,VALID,-0.101885,VALID,19.7897,VALID,155,VALID,0.0375744,
2004-10-16, 01:12:00,VALID,919.779,VALID,0,VALID,100,VALID,-0.101885,VALID,19.7663,VALID,155,VALID,0.00223214,
2004-10-16, 01:13:00,VALID,919.772,VALID,0,VALID,100,VALID,-0.0849042,VALID,19.773,VALID,155,VALID,0,
2004-10-16, 01:14:00,VALID,919.759,VALID,0,VALID,100,VALID,-0.118866,VALID,19.7606,VALID,155,VALID,0.0606831,
2004-10-16, 01:15:00,VALID,919.754,VALID,0,VALID,100,VALID,-0.0849042,VALID,19.7382,VALID,154,VALID,0.44077,
2004-10-16, 01:16:00,VALID,919.735,VALID,0,VALID,100,VALID,-0.101885,VALID,19.7293,VALID,142,VALID,0.55907,
2004-10-16, 01:17:00,VALID,919.735,VALID,0,VALID,100,VALID,-0.101885,VALID,19.7122,VALID,141,VALID,0.317708,
2004-10-16, 01:18:00,VALID,919.741,VALID,0,VALID,100,VALID,-0.0509425,VALID,19.7213,VALID,141,VALID,0.0314405,
2004-10-16, 01:19:00,VALID,919.732,VALID,0,VALID,100,VALID,-0.0169808,VALID,19.7169,VALID,141,VALID,0.0123547,
2004-10-16, 01:20:00,VALID,919.712,VALID,0,VALID,100,VALID,0.0339617,VALID,19.7169,VALID,141,VALID,0.574124,
2004-10-16, 01:21:00,VALID,919.693,VALID,0,VALID,100,VALID,0.0169808,VALID,19.6908,VALID,149,VALID,0.981399,
2004-10-16, 01:22:00,VALID,919.669,VALID,0,VALID,100,VALID,0.0169808,VALID,19.6985,VALID,133,VALID,0.523438,
2004-10-16, 01:23:00,VALID,919.646,VALID,0,VALID,100,VALID,0,VALID,19.6749,VALID,121,VALID,0.101563,
2004-10-16, 01:24:00,VALID,919.624,VALID,0,VALID,100,VALID,0,VALID,19.6496,VALID,121,VALID,0.174479,
2004-10-16, 01:25:00,VALID,919.59,VALID,0,VALID,100,VALID,0,VALID,19.6364,VALID,121,VALID,0.312855,
2004-10-16, 01:26:00,VALID,919.572,VALID,0,VALID,100,VALID,0,VALID,19.6232,VALID,121,VALID,0.139695,
2004-10-16, 01:27:00,VALID,919.551,VALID,0,VALID,100,VALID,0,VALID,19.6267,VALID,121,VALID,0,
2004-10-16, 01:28:00,VALID,919.548,VALID,0,VALID,100,VALID,0,VALID,19.6173,VALID,121,VALID,0.000558036,
2004-10-16, 01:29:00,VALID,919.536,VALID,0,VALID,100,VALID,0.0169808,VALID,19.6014,VALID,121,VALID,0.185213,
2004-10-16, 01:30:00,VALID,919.516,VALID,0,VALID,100,VALID,0.0169808,VALID,19.5718,VALID,121,VALID,0.197311,
2004-10-16, 01:31:00,VALID,919.522,VALID,0,VALID,100,VALID,0,VALID,19.5331,VALID,89,VALID,0.360491,
2004-10-16, 01:32:00,VALID,919.491,VALID,0,VALID,100,VALID,0,VALID,19.4973,VALID,68,VALID,0.446615,
2004-10-16, 01:33:00,VALID,919.493,VALID,0,VALID,100,VALID,0,VALID,19.4782,VALID,74,VALID,0.516868,
2004-10-16, 01:34:00,VALID,919.465,VALID,0,VALID,100,VALID,-0.0169808,VALID,19.504,VALID,88,VALID,0.488758,
2004-10-16, 01:35:00,VALID,919.439,VALID,0,VALID,100,VALID,0.0169808,VALID,19.4981,VALID,32,VALID,0.837028,
2004-10-16, 01:36:00,VALID,919.433,VALID,0,VALID,100,VALID,0,VALID,19.4394,VALID,11,VALID,0.978087,
2004-10-16, 01:37:00,VALID,919.411,VALID,0,VALID,100,VALID,-0.0169808,VALID,19.4235,VALID,11,VALID,0.65263,
2004-10-16, 01:38:00,VALID,919.384,VALID,0,VALID,100,VALID,0,VALID,19.4139,VALID,21,VALID,0.648105,
2004-10-16, 01:39:00,VALID,919.377,VALID,0,VALID,100,VALID,0.0339617,VALID,19.398,VALID,26,VALID,0.474609,
2004-10-16, 01:40:00,VALID,919.362,VALID,0,VALID,100,VALID,0,VALID,19.3687,VALID,26,VALID,0.511541,
2004-10-16, 01:41:00,VALID,919.354,VALID,0,VALID,100,VALID,0.0169808,VALID,19.4052,VALID,43,VALID,0.739281,
2004-10-16, 01:42:00,VALID,919.354,VALID,0,VALID,100,VALID,0,VALID,19.3818,VALID,57,VALID,0.660442,
2004-10-16, 01:43:00,VALID,919.348,VALID,0,VALID,100,VALID,-0.0169808,VALID,19.35,VALID,57,VALID,0.386418,
2004-10-16, 01:44:00,VALID,919.347,VALID,0,VALID,100,VALID,0,VALID,19.3172,VALID,57,VALID,0.231597,
2004-10-16, 01:45:00,VALID,919.349,VALID,0,VALID,100,VALID,-0.0169808,VALID,19.2981,VALID,57,VALID,0.240885,
2004-10-16, 01:46:00,VALID,919.345,VALID,0,VALID,100,VALID,0,VALID,19.2986,VALID,57,VALID,0.169695,
2004-10-16, 01:47:00,VALID,919.333,VALID,0,VALID,100,VALID,0,VALID,19.279,VALID,57,VALID,0.174352,
2004-10-16, 01:48:00,VALID,919.34,VALID,0,VALID,100,VALID,-0.0339617,VALID,19.2797,VALID,57,VALID,0.301482,
2004-10-16, 01:49:00,VALID,919.303,VALID,0,VALID,100,VALID,-0.118866,VALID,19.2867,VALID,57,VALID,0.259673,
2004-10-16, 01:50:00,VALID,919.295,VALID,0,VALID,100,VALID,-0.118866,VALID,19.2968,VALID,57,VALID,0.328658,
2004-10-16, 01:51:00,VALID,919.267,VALID,0,VALID,100,VALID,-0.101885,VALID,19.313,VALID,57,VALID,0.503162,
2004-10-16, 01:52:00,VALID,919.232,VALID,0,VALID,100,VALID,-0.101885,VALID,19.3185,VALID,57,VALID,0.51181,
2004-10-16, 01:53:00,VALID,919.203,VALID,0,VALID,100,VALID,-0.0849042,VALID,19.3058,VALID,57,VALID,0.420486,
2004-10-16, 01:54:00,VALID,919.185,VALID,0,VALID,100,VALID,-0.101885,VALID,19.2894,VALID,57,VALID,0.446007,
2004-10-16, 01:55:00,VALID,919.146,VALID,0,VALID,100,VALID,-0.101885,VALID,19.309,VALID,57,VALID,0.508398,
2004-10-16, 01:56:00,VALID,919.118,VALID,0,VALID,100,VALID,-0.0679233,VALID,19.3286,VALID,57,VALID,0.550686,
2004-10-16, 01:57:00,VALID,919.1,VALID,0,VALID,100,VALID,-0.101885,VALID,19.345,VALID,57,VALID,0.495561,
2004-10-16, 01:58:00,VALID,919.084,VALID,0,VALID,100,VALID,-0.0849042,VALID,19.3388,VALID,57,VALID,0.435865,
2004-10-16, 01:59:00,VALID,919.068,VALID,0,VALID,100,VALID,-0.0849042,VALID,19.3152,VALID,57,VALID,0.499814,
2004-10-16, 02:00:00,VALID,919.054,VALID,0,VALID,100,VALID,-0.101885,VALID,19.3222,VALID,59,VALID,0.536776,
2004-10-16, 02:01:00,VALID,919.05,VALID,0,VALID,100,VALID,-0.101885,VALID,19.3187,VALID,68,VALID,0.560724,
2004-10-16, 02:02:00,VALID,919.055,VALID,0,VALID,100,VALID,-0.101885,VALID,19.313,VALID,86,VALID,0.211806,
2004-10-16, 02:03:00,VALID,919.054,VALID,0,VALID,100,VALID,-0.118866,VALID,19.3095,VALID,86,VALID,0.038872,
2004-10-16, 02:04:00,VALID,919.066,VALID,0,VALID,100,VALID,-0.118866,VALID,19.3063,VALID,86,VALID,0,
2004-10-16, 02:05:00,VALID,919.065,VALID,0,VALID,100,VALID,-0.0849042,VALID,19.3125,VALID,86,VALID,0,
2004-10-16, 02:06:00,VALID,919.077,VALID,0,VALID,100,VALID,-0.0849042,VALID,19.3125,VALID,86,VALID,0,
2004-10-16, 02:07:00,VALID,919.081,VALID,0,VALID,100,VALID,-0.101885,VALID,19.3217,VALID,86,VALID,0,
2004-10-16, 02:08:00,VALID,919.094,VALID,0,VALID,100,VALID,-0.118866,VALID,19.2963,VALID,86,VALID,0.0649182,
2004-10-16, 02:09:00,VALID,919.08,VALID,0,VALID,100,VALID,-0.101885,VALID,19.2837,VALID,86,VALID,0.0317827,
2004-10-16, 02:10:00,VALID,919.077,VALID,0,VALID,100,VALID,-0.101885,VALID,19.28,VALID,86,VALID,0,
2004-10-16, 02:11:00,VALID,919.07,VALID,0,VALID,100,VALID,-0.101885,VALID,19.2837,VALID,86,VALID,0.0181108,
2004-10-16, 02:12:00,VALID,919.06,VALID,0,VALID,100,VALID,-0.0849042,VALID,19.2668,VALID,86,VALID,0.0380435,
2004-10-16, 02:13:00,VALID,919.034,VALID,0,VALID,100,VALID,-0.101885,VALID,19.244,VALID,86,VALID,0.168713,
2004-10-16, 02:14:00,VALID,919.009,VALID,0,VALID,100,VALID,-0.0849042,VALID,19.2549,VALID,86,VALID,0.0769817,
2004-10-16, 02:15:00,VALID,919.003,VALID,0,VALID,100,VALID,-0.0849042,VALID,19.2546,VALID,86,VALID,0.106771,
2004-10-16, 02:16:00,VALID,918.953,VALID,0,VALID,100,VALID,-0.101885,VALID,19.2611,VALID,86,VALID,0.0919331,
2004-10-16, 02:17:00,VALID,918.925,VALID,0,VALID,100,VALID,-0.0849042,VALID,19.2807,VALID,86,VALID,0,
2004-10-16, 02:18:00,VALID,918.903,VALID,0,VALID,100,VALID,-0.0679233,VALID,19.2869,VALID,86,VALID,0,
2004-10-16, 02:19:00,VALID,918.875,VALID,0,VALID,100,VALID,-0.0169808,VALID,19.2762,VALID,86,VALID,0.273082,
2004-10-16, 02:20:00,VALID,918.856,VALID,0,VALID,100,VALID,0,VALID,19.2792,VALID,80,VALID,0.396763,
2004-10-16, 02:21:00,VALID,918.847,VALID,0,VALID,100,VALID,0,VALID,19.2758,VALID,76,VALID,0.446646,
2004-10-16, 02:22:00,VALID,918.828,VALID,0,VALID,100,VALID,0,VALID,19.2755,VALID,76,VALID,0.346657,
2004-10-16, 02:23:00,VALID,918.824,VALID,0,VALID,100,VALID,0.0169808,VALID,19.2725,VALID,76,VALID,0.241044,
2004-10-16, 02:24:00,VALID,918.815,VALID,0,VALID,100,VALID,0.0339617,VALID,19.2725,VALID,76,VALID,0.0921148,
2004-10-16, 02:25:00,VALID,918.804,VALID,0,VALID,100,VALID,0,VALID,19.2852,VALID,76,VALID,0,
2004-10-16, 02:26:00,VALID,918.815,VALID,0,VALID,100,VALID,0,VALID,19.3021,VALID,76,VALID,0,
2004-10-16, 02:27:00,VALID,918.816,VALID,0,VALID,100,VALID,0.0169808,VALID,19.3177,VALID,75,VALID,0,
2004-10-16, 02:28:00,VALID,918.813,VALID,0,VALID,100,VALID,0.0169808,VALID,19.3532,VALID,73,VALID,0,
2004-10-16, 02:29:00,VALID,918.818,VALID,0,VALID,100,VALID,0.0169808,VALID,19.3401,VALID,71,VALID,0.370028,
2004-10-16, 02:30:00,VALID,918.824,VALID,0,VALID,100,VALID,0,VALID,19.3274,VALID,45,VALID,0.369992,
2004-10-16, 02:31:00,VALID,918.838,VALID,0,VALID,100,VALID,0.0169808,VALID,19.2986,VALID,27,VALID,0.382813,
2004-10-16, 02:32:00,VALID,918.844,VALID,0,VALID,100,VALID,0.0169808,VALID,19.2914,VALID,26,VALID,0.152158,
2004-10-16, 02:33:00,VALID,918.843,VALID,0,VALID,100,VALID,-0.0169808,VALID,19.2984,VALID,26,VALID,0.0213415,
2004-10-16, 02:34:00,VALID,918.847,VALID,0,VALID,100,VALID,-0.0509425,VALID,19.3023,VALID,26,VALID,0,
2004-10-16, 02:35:00,VALID,918.826,VALID,0,VALID,100,VALID,-0.0849042,VALID,19.3026,VALID,26,VALID,0,
2004-10-16, 02:36:00,VALID,918.813,VALID,0,VALID,100,VALID,-0.0679233,VALID,19.2864,VALID,26,VALID,0,
2004-10-16, 02:37:00,VALID,918.793,VALID,0,VALID,100,VALID,-0.0849042,VALID,19.2834,VALID,26,VALID,0.0928416,
2004-10-16, 02:38:00,VALID,918.76,VALID,0,VALID,100,VALID,-0.0849042,VALID,19.2896,VALID,26,VALID,0.334872,
2004-10-16, 02:39:00,VALID,918.745,VALID,0,VALID,100,VALID,-0.101885,VALID,19.2963,VALID,26,VALID,0.345796,
2004-10-16, 02:40:00,VALID,918.716,VALID,0,VALID,100,VALID,-0.0509425,VALID,19.2867,VALID,26,VALID,0.395703,
2004-10-16, 02:41:00,VALID,918.704,VALID,0,VALID,100,VALID,-0.101885,VALID,19.2767,VALID,26,VALID,0.361861,
2004-10-16, 02:42:00,VALID,918.708,VALID,0,VALID,100,VALID,-0.0679233,VALID,19.2541,VALID,26,VALID,0.583452,
2004-10-16, 02:43:00,VALID,918.699,VALID,0,VALID,100,VALID,-0.0849042,VALID,19.2571,VALID,21,VALID,0.690897,
2004-10-16, 02:44:00,VALID,918.713,VALID,0,VALID,100,VALID,-0.101885,VALID,19.2511,VALID,11,VALID,1.13653,
2004-10-16, 02:45:00,VALID,918.733,VALID,0,VALID,100,VALID,-0.0509425,VALID,19.2385,VALID,16,VALID,1.05469,
2004-10-16, 02:46:00,VALID,918.747,VALID,0,VALID,100,VALID,-0.0679233,VALID,19.2343,VALID,24,VALID,0.925864,
2004-10-16, 02:47:00,VALID,918.753,VALID,0,VALID,100,VALID,-0.0509425,VALID,19.2474,VALID,13,VALID,1.16515,
2004-10-16, 02:48:00,VALID,918.765,VALID,0,VALID,100,VALID,-0.0339617,VALID,19.2405,VALID,18,VALID,0.545967,
2004-10-16, 02:49:00,VALID,918.778,VALID,0,VALID,100,VALID,0.0339617,VALID,19.2398,VALID,13,VALID,0.266242,
2004-10-16, 02:50:00,VALID,918.789,VALID,0,VALID,100,VALID,0.0509425,VALID,19.2261,VALID,13,VALID,0,
2004-10-16, 02:51:00,VALID,918.783,VALID,0,VALID,100,VALID,0.0169808,VALID,19.2335,VALID,13,VALID,0.400977,
2004-10-16, 02:52:00,VALID,918.773,VALID,0,VALID,100,VALID,0.0169808,VALID,19.2301,VALID,13,VALID,0.371761,
2004-10-16, 02:53:00,VALID,918.751,VALID,0,VALID,100,VALID,0.0339617,VALID,19.2363,VALID,13,VALID,0.455305,
2004-10-16, 02:54:00,VALID,918.749,VALID,0,VALID,100,VALID,0.0509425,VALID,19.2005,VALID,12,VALID,0.131284,
2004-10-16, 02:55:00,VALID,918.732,VALID,0,VALID,100,VALID,0.0509425,VALID,19.1881,VALID,12,VALID,0.0139101,
2004-10-16, 02:56:00,VALID,918.719,VALID,0,VALID,100,VALID,0.0169808,VALID,19.1948,VALID,12,VALID,0.287791,
2004-10-16, 02:57:00,VALID,918.722,VALID,0,VALID,100,VALID,0.0509425,VALID,19.1876,VALID,11,VALID,0.526278,
2004-10-16, 02:58:00,VALID,918.728,VALID,0,VALID,100,VALID,0.0849042,VALID,19.1814,VALID,10,VALID,0.570313,
2004-10-16, 02:59:00,VALID,918.747,VALID,0,VALID,100,VALID,0.0509425,VALID,19.172,VALID,7,VALID,0.643415,
2004-10-16, 03:00:00,VALID,918.763,VALID,0,VALID,100,VALID,0.0509425,VALID,19.1302,VALID,15,VALID,0.957209,
2004-10-16, 03:01:00,VALID,918.786,VALID,0,VALID,100,VALID,0.0339617,VALID,19.133,VALID,17,VALID,0.928686,
2004-10-16, 03:02:00,VALID,918.794,VALID,0,VALID,100,VALID,0.0679233,VALID,19.1265,VALID,18,VALID,0.884055,
2004-10-16, 03:03:00,VALID,918.806,VALID,0,VALID,100,VALID,-0.0339617,VALID,19.1141,VALID,21,VALID,0.812322,
2004-10-16, 03:04:00,VALID,918.82,VALID,0,VALID,100,VALID,-0.101885,VALID,19.0895,VALID,21,VALID,0.787919,
2004-10-16, 03:05:00,VALID,918.831,VALID,0,VALID,100,VALID,-0.0849042,VALID,19.1051,VALID,15,VALID,0.419613,
2004-10-16, 03:06:00,VALID,918.827,VALID,0,VALID,100,VALID,-0.101885,VALID,19.1347,VALID,15,VALID,0.19931,
2004-10-16, 03:07:00,VALID,918.82,VALID,0,VALID,100,VALID,-0.101885,VALID,19.1473,VALID,15,VALID,0.444169,
2004-10-16, 03:08:00,VALID,918.812,VALID,0,VALID,100,VALID,-0.0849042,VALID,19.1771,VALID,15,VALID,0.542882,
2004-10-16, 03:09:00,VALID,918.806,VALID,0,VALID,100,VALID,-0.0679233,VALID,19.1836,VALID,15,VALID,0.5359,
2004-10-16, 03:10:00,VALID,918.799,VALID,0,VALID,100,VALID,-0.101885,VALID,19.1925,VALID,15,VALID,0.415737,
2004-10-16, 03:11:00,VALID,918.801,VALID,0,VALID,100,VALID,-0.0509425,VALID,19.1863,VALID,15,VALID,0.29516,
2004-10-16, 03:12:00,VALID,918.804,VALID,0,VALID,100,VALID,-0.0509425,VALID,19.1829,VALID,15,VALID,0.510174,
2004-10-16, 03:13:00,VALID,918.811,VALID,0,VALID,100,VALID,-0.0679233,VALID,19.1536,VALID,15,VALID,0.602493,
2004-10-16, 03:14:00,VALID,918.812,VALID,0,VALID,100,VALID,-0.0509425,VALID,19.1508,VALID,15,VALID,0.509673,
2004-10-16, 03:15:00,VALID,918.803,VALID,0,VALID,100,VALID,-0.0339617,VALID,19.1441,VALID,15,VALID,0.476744,
2004-10-16, 03:16:00,VALID,918.79,VALID,0,VALID,100,VALID,-0.0849042,VALID,19.1347,VALID,15,VALID,0.474564,
2004-10-16, 03:17:00,VALID,918.786,VALID,0,VALID,100,VALID,-0.0679233,VALID,19.157,VALID,15,VALID,0.467226,
2004-10-16, 03:18:00,VALID,918.76,VALID,0,VALID,100,VALID,-0.0679233,VALID,19.157,VALID,16,VALID,0.603924,
2004-10-16, 03:19:00,VALID,918.738,VALID,0,VALID,100,VALID,0.0169808,VALID,19.1434,VALID,16,VALID,0.682165,
2004-10-16, 03:20:00,VALID,918.717,VALID,0,VALID,100,VALID,0.0679233,VALID,19.1563,VALID,16,VALID,0.598544,
2004-10-16, 03:21:00,VALID,918.715,VALID,0,VALID,100,VALID,0.0169808,VALID,19.124,VALID,16,VALID,0.477896,
2004-10-16, 03:22:00,VALID,918.689,VALID,0,VALID,100,VALID,0.0169808,VALID,19.1265,VALID,16,VALID,0.620593,
2004-10-16, 03:23:00,VALID,918.677,VALID,0,VALID,100,VALID,0,VALID,19.1335,VALID,16,VALID,0.643895,
2004-10-16, 03:24:00,VALID,918.649,VALID,0,VALID,100,VALID,0.0169808,VALID,19.13,VALID,17,VALID,0.55222,
2004-10-16, 03:25:00,VALID,918.648,VALID,0,VALID,100,VALID,0,VALID,19.1332,VALID,17,VALID,0.337391,
2004-10-16, 03:26:00,VALID,918.622,VALID,0,VALID,100,VALID,0.0169808,VALID,19.1466,VALID,18,VALID,0.391768,
2004-10-16, 03:27:00,VALID,918.608,VALID,0,VALID,100,VALID,0.0169808,VALID,19.13,VALID,18,VALID,0.474702,
2004-10-16, 03:28:00,VALID,918.6,VALID,0,VALID,100,VALID,0.0679233,VALID,19.1367,VALID,18,VALID,0.362723,
2004-10-16, 03:29:00,VALID,918.596,VALID,0,VALID,100,VALID,0.0339617,VALID,19.1233,VALID,18,VALID,0.52907,
2004-10-16, 03:30:00,VALID,918.611,VALID,0,VALID,100,VALID,0.0169808,VALID,19.1501,VALID,18,VALID,0.640244,
2004-10-16, 03:31:00,VALID,918.607,VALID,0,VALID,100,VALID,0.0339617,VALID,19.1628,VALID,18,VALID,0.458891,
2004-10-16, 03:32:00,VALID,918.609,VALID,0,VALID,100,VALID,0.0169808,VALID,19.162,VALID,356,VALID,0.389172,
2004-10-16, 03:33:00,VALID,918.6,VALID,0,VALID,100,VALID,0,VALID,19.1374,VALID,353,VALID,0.816679,
2004-10-16, 03:34:00,VALID,918.596,VALID,0,VALID,100,VALID,-0.0679233,VALID,19.0862,VALID,341,VALID,0.756324,
2004-10-16, 03:35:00,VALID,918.589,VALID,0,VALID,100,VALID,-0.101885,VALID,19.0837,VALID,344,VALID,0.848514,
2004-10-16, 03:36:00,VALID,918.572,VALID,0,VALID,100,VALID,-0.101885,VALID,19.0512,VALID,334,VALID,0.898438,
2004-10-16, 03:37:00,VALID,918.582,VALID,0,VALID,100,VALID,-0.0679233,VALID,19.0353,VALID,329,VALID,0.522529,
2004-10-16, 03:38:00,VALID,918.576,VALID,0,VALID,100,VALID,-0.101885,VALID,19.0415,VALID,340,VALID,0.40811,
2004-10-16, 03:39:00,VALID,918.578,VALID,0,VALID,100,VALID,-0.101885,VALID,19.0413,VALID,356,VALID,0.648983,
2004-10-16, 03:40:00,VALID,918.585,VALID,0,VALID,100,VALID,-0.101885,VALID,19.0639,VALID,19,VALID,0.73609,
2004-10-16, 03:41:00,VALID,918.594,VALID,0,VALID,100,VALID,-0.101885,VALID,19.0413,VALID,10,VALID,1.01429,
2004-10-16, 03:42:00,VALID,918.602,VALID,0,VALID,100,VALID,-0.0849042,VALID,19.0415,VALID,11,VALID,0.913175,
2004-10-16, 03:43:00,VALID,918.598,VALID,0,VALID,100,VALID,-0.0849042,VALID,19.0383,VALID,11,VALID,0.40696,